Погода в Урюпинске

Погода в Урюпинске : погода сейчас, прогноз погоды и архив. Всё, что Вы хотите узнать о погоде в Урюпинске!

Хотите узнать прогноз погоды в Урюпинске? Тогда Вам сюда: Погода в Урюпинске

Поиск расширенной информации на нашем сайте:

Другие новости

Новости СМИ2

Главная страница сайта

Новости сайта

02.10.2013

Напоминаем, что на нашем новом сайте вы можете получить высокодетализированные прогнозы погоды по пунктам России, СНГ и мира (включающие важные для авиации метеовеличины, такие как направление и скорость ветра, видимость, явления погоды, количество и форма облачности, нижняя и верхняя граница облачности), а также ознакомиться с разнообразными материалами по авиационной метеорологии и подборкой полезных ссылок на эту тему.

Сайт Метеоцентр.Азия посвящён разработке технологий оптимизации авиаметеорологического обслуживания, включая проектирование и перспективное создание нескольких автоматизированных авиаметеорологических систем:
- система выпуска высокодетальных прогностических карт явлений погоды для нижнего воздушного пространства по России и ближнему зарубежью;
- система верификации прогнозов TAF (выпускаемых синоптиками официальных АМСГ РФ и ближнего зарубежья) и AUTOTAF (выпускаемых сайтом Метеоцентр.Азия) - выявление ошибок, онлайн-сопоставление с фактической погодой METAR, автоматическое внесение коррективов в прогнозы при резком отклонении фактической погоды от прогноза, подсчёт оправдываемости прогнозов по элементам и в целом;
- система обработки, анализа и отображения авиаметеорологической информации для применения провайдерами метеорологической информации.


Погода в Урюпинске - сегодня

Время (UTC), дата Ветер
(°,м/с) 
Видим.   Явления Облачность Т
(°С)
Тd
(°С)
f(%) Тe
(°С)
Pmin
(гПа)
dP
(гПа)
Po
(мм)
O2
(г/м3)
Тmin Tmax R s Состояние
почвы
06 25.04.17 280 (З) 20000 м    10/3 600 м средняя, верхняя 
[Cu med, cong|Ac trans|Ci fib]
+7.2 +0.7 63 +5  1018  3.1  754  296           
18 25.04.17 170 (Ю) 10 км    1/1 600 м 
[Cu med, cong]
+6.3 -6.9 38 +6  1023.8  1.9  758  299           
21 25.04.17 190 (Ю) 10 км    ясно 
+4.7 -5.5 48 +3  1024.8  0.9  759  301           
00 26.04.17 190 (Ю) 10 км    9/0 средняя 
[Ac trans]
+4.5 -3.5 56 +3  1025.5  0.7  759  301           
03 26.04.17 190 (Ю) 20000 м    3/0 средняя 
[Ac trans]
+4 -1.5 67 +3  1026.9  1.4  760  302  +3.5        мокрая 
06 26.04.17 190 (Ю) 20000 м    6/0 средняя, верхняя 
[Ac trans|Ci fib]
+11.3 +1.7 52 +11  1027.2  0.6  761  294           
09 26.04.17 190 (Ю) 20000 м    3/3 1000 м верхняя 
[Cu med, cong|Ci fib]
+14.9 -0.5 35 +14  1027.1  0.1  761  291           
15 26.04.17 190 (Ю) 7-10{13}  20000 м    1/0 верхняя 
[Ci fib]
+15.7 -0.2 34 +15  1025.5  -1  760  289    +16.9       
18 26.04.17 150 (ЮВ) 4{10}  10 км    1/0 средняя 
[Ac trans]
+11 +2 54 +10  1026.2  0.5  760  294           
21 26.04.17 160 (Ю) 10 км    ясно 
+8.6 +1.9 63 +7  1027.1  0.7  760  297           
00 27.04.17 160 (Ю) 10 км    ясно 
+6.1 +1.3 71 +5  1027.4  0.2  761  300           
03 27.04.17 160 (Ю) 20000 м    3/0 верхняя 
[Ci fib]
+6.4 +1.1 69 +5  1027.9  0.5  761  299  +4.9        сухая 
15 27.04.17 160 (Ю) 7-11{13}  20000 м    10/0 верхняя 
[Ci fib]
+18.5 -2.6 24 +18  1024.5  -1.4  759  287    +20.1       
18 27.04.17 150 (ЮВ) 4{11}  10 км    10/0 верхняя 
[Ci fib]
+14.2 -1.6 34 +14  1025.6  0.9  760  291           
21 27.04.17 150 (ЮВ) 10 км    10/0 верхняя 
[Ci fib]
+10.7 +0.8 50 +10  1026.1  0.3  760  294           
00 28.04.17 170 (Ю) 10 км    10/0 верхняя 
[Ci fib]
+9.4 +0.4 53 +9  1026.3  0.3  760  296           
03 28.04.17 130 (ЮВ) 20000 м    10/0 верхняя 
[Ci fib]
+7.4 +1.2 65 +8  1027  0.6  760  298  +6.6        сухая 
06 28.04.17 150 (ЮВ) 20000 м    10/0 верхняя 
[Ci fib]
+13.9 +2.1 45 +13  1026.4  -0.3  760  291           
15 28.04.17 130 (ЮВ) 7-10{13}  20000 м    10/0 верхняя 
[Ci fib]
+21.5 +1.2 26 +22  1022.3  -1.4  757  283    +23.1       
18 28.04.17 100 (В) 4{10}  10 км    10/0 верхняя 
[Ci fib]
+14.1 +2.8 46 +14  1023.3  0.7  758  290           
21 28.04.17 110 (В) 10 км    10/0 верхняя 
[Ci fib]
+11.8 +1.6 50 +11  1023.5  0.1  758  292           
00 29.04.17 080 (В) 10 км    10/0 верхняя 
[Ci fib]
+7.1 +1.2 66 +6  1023.4  -0.3  758  297           
03 29.04.17 080 (В) 20000 м    10/0 средняя, верхняя 
[Ac trans|Ci fib]
+8.2 +1.3 62 +8  1022.7  -0.6  757  296  +6        сухая 
06 29.04.17 130 (ЮВ) 6{10}  20000 м    ясно 
+14.8 +2.5 43 +14  1021.9  -0.5  757  289           
09 29.04.17 130 (ЮВ) 5{10}  20000 м    ясно 
+19.2 +4.2 37 +20  1021  -0.7  756  284           
Время (UTC), дата Ветер
(°,м/с) 
Видим.   Явления Облачность Т
(°С)
Тd
(°С)
f(%) Тe
(°С)
Pmin
(гПа)
dP
(гПа)
Po
(мм)
O2
(г/м3)
Тmin Tmax R s Состояние
почвы

Для получения пояснительной информации подведите курсор к названию столбца.

ПОГОДА в Урюпинске - архив

Всё, что Вы хотите узнать о погоде в Урюпинске - удобно и подробно!

Выберите нужную дату (начиная с 1 января 2015* года) и нажмите кнопку "Найти".
Будут отображены архивные сводки погоды по пункту Урюпинск, начиная с указанной даты.


Отображать данные в формате CSV (для использования в таблицах Excel)


Внимание! Наш архив погоды предназначен исключительно для личного некоммерческого использования в познавательных целях. Если Вам необходимы официальные справки о состоянии погоды (для производственных, юридических, коммерческих и т.п. целей), обращайтесь в органы Росгидромета.

*Примечание: данная дата относится к архиву по метеостанциям СССР (Россия, СНГ, Балтия).
Архив по метеостанциям Зарубежной Европы и Азии (кроме Китая) хранится 10 дней, по другим регионам земного шара (Китай, Африка, Америка, Австралия, Океания) - 1 день.

Урюпинск - район местоположения метеостанции


Название, широта, долгота, высота метеостанции:
Урюпинск 50.8°ш. 42°д. 110 м над ур. моря [Российская Федерация]

Дополнительная информация

В oтличие oт бoльшинства пoгoдных сайтoв мы публикуем пoдрoбную метеoинфoрмацию в детальнoм прoфессиoнальнoм фoрмате.

Характеристики температуры и влажнoсти вoздуха измеряются на высoте 2 м в тени вдали oт зданий и деревьев.
Скoрoсть ветра измеряется на высoте 10 м (на урoвне рoста челoвека скoрoсть ветра ниже в 1.5-2 раза). Если метеoстанция нахoдится в гoрoде или в лесу, тo скoрoсть ветра занижена на 2-4 м/с пo сравнению с oткрытым местoм. Скoрoсть ветра над акватoриями крупных рек и oзёр, а также на вершинах хoлмoв на 2-5 м/с выше, чем в oбычных услoвиях.
Атмoсфернoе давление в разных тoчках местнoсти мoжет значительнo oтличаться oт давления на метеoстанции, в зависимoсти oт услoвий рельефа (при пoдъёме на 10 м давление пoнижается примернo на 1 мм рт.ст.).